Retour au catalogue

COSMOS 917 DEB

LostHEO
NORAD 27886·DEBRIS·🇷🇺 Russia

Lancé Jun 16, 1977 depuis Plesetsk Cosmodrome

Loading…

Prochains Passages (prochaines 24 heures)

TLE

PériméSource: Space-Track

Époque: Jul 19, 2018, 05:12 UTC

1 27886U 77047J   18200.21715231 +.00000148 +00000-0 +10000-3 0  9996
2 27886 068.4678 086.3046 5754738 039.4511 350.8934 01.94173706124277

Suivez COSMOS 917 DEB en temps réel avec AllMySat

Download on the App Store